{"data":{"norad_id":64303,"epoch":"2026-09-20T11:56:42.176832Z","epoch_age_seconds":137819,"freshness":"FRESH","line1":"1 64303U 25123N   26263.49771038  .00008887  00000+0  31321-3 0  9990","line2":"2 64303  69.9999  61.0908 0003225 270.4398  89.6408 15.29582091 70855","mean_motion":15.29582091,"eccentricity":0.0003225,"inclination_deg":69.9999,"raan_deg":61.0908,"arg_perigee_deg":270.4398,"mean_anomaly_deg":89.6408,"bstar":0.00031321,"rev_number":7085,"period_min":94.143361671982,"perigee_km":474.84985413855,"apogee_km":479.27145662627,"semimajor_km":6855.1976553824,"source":"CELESTRAK","updated_at":"2026-09-21T09:00:35.307340Z"}}